TimeAKST,TemperatureF,Dew PointF,Humidity,Sea Level PressureIn,VisibilityMPH,Wind Direction,Wind SpeedMPH,Gust SpeedMPH,PrecipitationIn,Events,Conditions,WindDirDegrees,DateUTC
12:53 AM,12.0,8.1,84,29.76,10.0,West,8.1,-,N/A,,Clear,280,2011-11-29 09:53:00
1:53 AM,12.0,8.1,84,29.78,10.0,WNW,5.8,-,N/A,,Clear,290,2011-11-29 10:53:00
3:53 AM,10.9,8.1,88,29.83,10.0,West,5.8,-,N/A,,Clear,260,2011-11-29 12:53:00
4:53 AM,10.9,8.1,88,29.84,10.0,West,6.9,-,N/A,,Scattered Clouds,270,2011-11-29 13:53:00
5:53 AM,12.0,8.1,84,29.86,10.0,West,6.9,-,N/A,,Scattered Clouds,280,2011-11-29 14:53:00
6:53 AM,12.0,8.1,84,29.86,10.0,WNW,8.1,-,N/A,,Mostly Cloudy,290,2011-11-29 15:53:00
7:53 AM,14.0,10.9,88,29.87,10.0,West,5.8,-,N/A,,Overcast,280,2011-11-29 16:53:00
8:53 AM,15.1,10.9,84,29.86,10.0,West,5.8,-,N/A,,Overcast,270,2011-11-29 17:53:00
9:34 AM,24.8,19.4,80,29.86,4.0,South,5.8,-,0.00,Snow,Light Snow,180,2011-11-29 18:34:00
9:53 AM,23.0,19.0,85,29.86,9.0,Calm,Calm,-,0.00,,Overcast,0,2011-11-29 18:53:00
10:53 AM,24.1,19.9,84,29.87,10.0,Calm,Calm,-,0.00,,Overcast,0,2011-11-29 19:53:00
11:00 AM,24.8,21.2,86,29.86,10.0,Calm,Calm,-,N/A,,Overcast,0,2011-11-29 20:00:00
11:53 AM,25.0,21.9,88,29.83,8.0,Calm,Calm,-,N/A,,Overcast,0,2011-11-29 20:53:00
12:07 PM,28.4,24.8,86,29.81,4.0,Calm,Calm,-,0.01,Rain,Light Freezing Rain,0,2011-11-29 21:07:00
12:18 PM,35.6,30.2,81,29.80,4.0,ESE,8.1,-,0.02,Rain,Light Rain,120,2011-11-29 21:18:00
12:53 PM,37.9,35.1,89,29.78,5.0,ESE,17.3,-,0.05,Rain,Light Rain,120,2011-11-29 21:53:00
1:53 PM,37.0,34.0,89,29.73,4.0,SE,8.1,-,0.07,Rain,Light Rain,130,2011-11-29 22:53:00
2:53 PM,39.0,35.1,86,29.66,4.0,SE,18.4,-,N/A,Rain,Light Rain,130,2011-11-29 23:53:00
3:53 PM,39.0,35.1,86,29.61,6.0,SSE,11.5,-,0.05,Rain,Light Rain,150,2011-11-30 00:53:00
4:36 PM,37.4,33.8,87,29.60,5.0,SSE,12.7,-,0.12,Rain,Light Rain,150,2011-11-30 01:36:00
4:53 PM,37.0,34.0,89,29.59,6.0,SSE,11.5,-,0.17,Rain,Light Rain,150,2011-11-30 01:53:00
5:53 PM,36.0,33.1,89,29.56,6.0,Variable,3.5,-,0.14,Rain,Light Rain,0,2011-11-30 02:53:00
6:53 PM,36.0,34.0,93,29.56,10.0,NNW,4.6,-,0.01,Rain,Light Rain,330,2011-11-30 03:53:00
7:53 PM,39.0,35.1,86,29.60,10.0,SW,4.6,-,0.00,Rain,Light Rain,220,2011-11-30 04:53:00
8:53 PM,41.0,34.0,76,29.63,10.0,WSW,3.5,-,0.00,Rain,Light Rain,240,2011-11-30 05:53:00
9:53 PM,41.0,34.0,76,29.64,10.0,Variable,4.6,-,0.00,Rain,Light Rain,0,2011-11-30 06:53:00
10:53 PM,39.9,34.0,79,29.66,7.0,South,11.5,-,0.00,,Mostly Cloudy,180,2011-11-30 07:53:00
11:27 PM,39.2,35.6,87,29.66,10.0,Calm,Calm,-,N/A,,Mostly Cloudy,0,2011-11-30 08:27:00
11:53 PM,39.0,35.1,86,29.67,10.0,NE,4.6,-,N/A,,Mostly Cloudy,40,2011-11-30 08:53:00